Location: Davayat
(45.9471°N, 3.1105°E)
Time: 16:16:13
(UTC+00:00)

USA 281 - Pass Details

Date: 01 December 2020
Orbit: 1074 x 1084 km, 106.0° (Epoch: 08 January)

Event Time Altitude Azimuth Distance (km) Brightness Sun altitude
Rises 17:19:58 0° 123° (ESE) 3,874 5.8 -12.8°
Reaches altitude 10° 17:22:40 10° 115° (ESE) 2,920 5.1 -13.2°
Maximum altitude 17:28:31 36° 52° (NE) 1,649 3.7 -14.2°
Drops below altitude 10° 17:34:22 10° 349° (NNW) 2,926 5.5 -15.2°
Sets 17:37:04 0° 341° (NNW) 3,884 6.2 -15.6°
